This is the latest recevied weather packets stored in our database for station/object W9WRP. If no packets are shown the sender has not sent any weather packets the latest 10 day(s).
| Time | Temp. | Humidity | Pressure | Rain* | Wind** | Luminosity | Snow |
|---|---|---|---|---|---|---|---|
| 1787969658 | 38.89° C | 23% | 1012 hPa | 0 mm | - | 0 W/m² | - |
| 1787969353 | 38.89° C | 23% | 1012.1 hPa | 0 mm | - | 1 W/m² | - |
| 1787969052 | 38.89° C | 23% | 1011.9 hPa | 0 mm | - | 1 W/m² | - |
| 1787968747 | 38.89° C | 23% | 1011.9 hPa | 0 mm | - | 2 W/m² | - |
| 1787968446 | 39.44° C | 23% | 1011.8 hPa | 0 mm | - | 4 W/m² | - |
| 1787968141 | 39.44° C | 23% | 1011.9 hPa | 0 mm | - | 5 W/m² | - |
| 1787967840 | 39.44° C | 23% | 1011.9 hPa | 0 mm | - | 6 W/m² | - |
| 1787967533 | 39.44° C | 23% | 1011.8 hPa | 0 mm | - | 8 W/m² | - |
| 1787967227 | 40° C | 23% | 1012 hPa | 0 mm | - | 10 W/m² | - |
| 1787966923 | 40° C | 23% | 1012 hPa | 0 mm | - | 14 W/m² | - |
| 1787966619 | 40° C | 23% | 1011.9 hPa | 0 mm | - | 18 W/m² | - |
| 1787966314 | 40.56° C | 23% | 1011.7 hPa | 0 mm | - | 23 W/m² | - |
| 1787966014 | 41.11° C | 23% | 1011.8 hPa | 0 mm | - | 27 W/m² | - |
| 1787965702 | 41.67° C | 22% | 1012.1 hPa | 0 mm | - | 45 W/m² | - |
| 1787965396 | 41.11° C | 21% | 1011.9 hPa | 0 mm | - | 55 W/m² | - |
| 1787965091 | 41.67° C | 21% | 1012.2 hPa | 0 mm | - | 63 W/m² | - |
| 1787964791 | 41.67° C | 22% | 1011.9 hPa | 0 mm | - | 70 W/m² | - |
| 1787964486 | 41.67° C | 22% | 1012.2 hPa | 0 mm | - | 63 W/m² | - |
| 1787964181 | 41.67° C | 22% | 1012 hPa | 0 mm | - | 87 W/m² | - |
| 1787963880 | 42.22° C | 22% | 1012 hPa | 0 mm | - | 76 W/m² | - |
| 1787963575 | 42.22° C | 21% | 1012 hPa | 0 mm | - | 112 W/m² | - |
| 1787963271 | 42.22° C | 20% | 1011.9 hPa | 0 mm | - | 125 W/m² | - |
| 1787962970 | 42.78° C | 20% | 1011.9 hPa | 0 mm | - | 66 W/m² | - |
| 1787962668 | 42.22° C | 20% | 1011.9 hPa | 0 mm | - | 126 W/m² | - |
| 1787962363 | 42.22° C | 20% | 1011.8 hPa | 0 mm | - | 162 W/m² | - |
* Rain latest hour (hover to see other rain measurements)
** Current wind speed in m/s (hover to see current wind gust speed)